SCP
0 0 0 0 0 0 0 0 0 0 0 0 0 0 0 0 1 1 1 1 1 1 1 1 1 1 1 1 1 1 1 1 1 0 0 0 0 0 0 0 0 0 0
0 0 0 0 0 0 0 0 0 0 0 0 0 0 0 0 0 1 1 1 1 1 1 1 1 1 1 1 1 1 1 1 1 0 0 0 0 0 0 0 0 0 0
0 0 0 0 0 0 0 0 0 0 0 0 0 0 0 0 0 0 0 0 1 1 1 1 1 1 1 0 0 1 1 1 0 0 0 0 0 0 0 0 0 0 0
0 0 0 0 0 0 0 0 0 0 0 0 0 0 0 0 0 0 0 0 0 0 0 0 1 1 0 0 0 0 0 0 0 0 0 0 0 0 0 0 0 0 0
0 0 0 0 0 0 0 0 0 0 0 0 0 0 0 0 0 0 0 0 0 0 0 0 0 0 0 0 0 0 0 0 0 0 0 0 0 0 0 0 0 0 0
0 0 0 0 0 0 0 0 0 0 0 0 0 0 0 0 0 0 0 0 0 0 0 0 0 0 0 0 0 0 0 0 0 0 0 0 0 0 0 0 0 0 0
0 0 0 0 0 0 0 0 0 0 0 0 0 0 0 0 0 0 0 0 0 0 0 0 0 0 0 0 0 0 0 0 0 0 0 0 0 0 0 0 0 0 0
0 0 0 0 0 0 0 0 0 0 0 0 0 0 0 0 0 0 0 0 0 0 0 0 0 0 0 0 0 0 0 0 0 0 0 0 0 0 0 0 0 0 0
0 0 0 0 0 0 0 0 0 0 0 0 0 0 0 0 0 0 0 0 0 0 0 0 0 0 0 0 0 0 0 0 0 0 0 0 0 0 0 0 0 0 0
0 0 0 0 0 0 0 0 0 0 0 0 0 0 0 0 0 0 0 0 0 0 0 0 0 0 0 0 0 0 0 0 0 0 0 0 0 0 0 0 0 0 0
0 0 0 0 0 0 0 0 0 0 0 0 0 0 0 0 0 0 0 0 0 0 0 0 0 0 0 0 0 0 0 0 0 0 0 0 0 0 0 0 0 0 0
0 0 0 0 0 0 0 0 0 0 0 0 0 0 0 0 0 0 0 0 0 0 0 0 0 0 0 0 0 0 0 0 0 0 0 0 0 0 0 0 0 0 0
0 0 0 0 0 0 0 0 0 0 0 0 0 0 0 0 0 0 0 0 0 0 0 0 0 0 0 0 0 0 0 0 0 0 0 0 0 0 0 0 0 0 0
0 0 0 0 0 0 0 0 0 0 0 0 0 0 0 0 0 0 0 0 0 0 0 0 0 0 0 0 0 0 0 0 0 0 0 0 0 0 0 0 0 0 0
0 0 0 0 0 0 0 0 0 0 0 0 0 0 0 0 0 0 0 0 0 0 0 0 0 0 0 0 0 0 0 0 0 0 0 0 0 -0 0 0 0 0 0
0 0 0 0 0 0 0 0 0 0 0 0 0 0 0 0 0 0 0 0 0 0 0 0 0 0 0 0 0 0 0 0 0 0 0 0 -0 -0 -0 0 0 0 0
0 0 0 0 0 0 0 0 0 0 0 0 0 0 0 0 0 0 0 0 0 0 0 0 0 0 0 0 0 0 0 0 0 0 0 0 0 0 0 0 0 0 0
0 0 0 0 0 0 0 0 0 0 0 0 0 0 0 0 0 0 0 0 0 0 0 0 0 0 0 0 0 0 0 0 0 0 0 0 0 0 0 0 0 0 0
0 0 0 0 0 0 0 0 0 0 0 0 0 0 0 0 0 0 0 0 0 0 0 0 0 0 0 0 0 0 0 0 0 0 0 0 0 0 0 0 0 0 0
0 0 0 0 0 0 0 0 0 0 0 0 0 0 0 0 0 0 0 0 0 0 0 0 0 0 0 0 0 0 0 0 0 0 0 0 0 0 0 0 0 0 0
0 0 0 0 0 0 0 0 0 0 0 0 0 0 0 0 0 0 0 0 0 0 0 0 0 0 0 0 0 0 0 0 0 -0 0 0 0 0 0 0 0 0 0
0 0 0 0 0 0 0 0 0 0 0 0 0 0 0 0 0 0 0 0 0 0 0 0 0 0 0 0 0 0 0 0 0 0 0 0 0 0 0 0 0 0 0
0 0 0 0 0 0 0 0 0 0 0 0 0 0 0 0 0 0 0 0 0 0 0 0 0 0 0 0 0 0 0 0 0 0 0 0 0 0 0 0 0 0 0
0 0 0 0 0 0 0 0 0 0 0 0 0 0 0 0 0 0 0 0 0 0 0 0 0 0 0 0 0 0 0 0 0 0 0 0 0 0 0 0 0 0 0
0 0 0 0 0 0 0 0 0 0 0 0 0 0 0 0 0 0 0 0 0 0 0 0 0 0 0 0 0 0 0 0 0 0 0 0 0 0 0 0 0 0 0
0 0 0 0 0 0 0 0 0 0 0 0 0 0 0 0 0 0 0 0 0 0 0 0 0 0 0 0 0 0 0 0 0 0 0 0 0 0 0 0 0 0 0
Wind_Speed
6 6 6 6 5 4 4 4 4 4 5 6 7 7 8 8 7 6 6 6 5 5 4 4 4 3 3 3 4 4 3 4 6 4 2 3 4 6 5 5 5 5 6
7 6 6 6 5 5 5 5 4 4 5 5 6 6 7 7 6 6 5 4 3 3 3 2 2 2 3 3 4 5 5 5 8 8 3 3 4 4 5 6 5 5 5
8 7 7 6 6 6 6 5 4 4 4 4 5 5 6 6 5 5 4 2 1 0 0 1 2 4 4 4 5 6 6 7 7 9 5 3 3 3 5 5 6 4 5
9 8 8 8 7 7 6 5 4 3 3 3 4 4 4 4 4 4 4 3 3 3 3 3 3 4 5 6 6 8 9 9 9 9 7 4 3 3 4 4 4 4 4
10 9 9 8 6 6 6 5 4 3 3 2 3 3 3 3 3 4 3 5 5 6 6 6 6 8 9 7 8 8 9 9 8 8 6 5 4 3 4 2 3 3 3
10 10 8 7 6 6 6 6 5 4 2 2 1 1 2 3 4 6 4 5 5 6 7 8 8 10 13 16 16 13 11 10 9 7 6 6 4 3 3 3 2 2 3
10 9 8 7 7 6 6 6 6 5 4 3 2 1 1 2 4 6 7 6 6 6 6 7 7 9 10 11 15 16 14 13 10 7 8 5 4 3 3 4 3 3 2
9 9 8 7 8 7 6 7 7 5 5 4 4 3 2 2 4 6 7 6 6 7 7 7 8 8 8 10 11 11 10 9 8 7 7 5 4 3 3 3 3 3 2
9 9 9 8 8 8 7 7 7 6 6 6 5 5 4 3 4 6 6 5 6 7 7 7 7 7 10 11 12 11 10 9 11 13 11 10 9 7 4 4 4 4 3
10 9 9 8 8 9 8 7 6 7 8 7 6 6 6 5 5 6 7 5 6 6 6 6 8 8 9 10 10 10 10 7 7 9 9 9 9 9 9 5 3 3 2
10 9 9 8 8 9 8 7 6 7 8 8 8 6 6 6 7 8 8 5 5 6 5 4 4 9 10 10 9 8 9 8 8 8 7 7 6 6 6 5 4 3 3
10 10 10 9 9 8 8 7 6 7 9 9 8 7 5 5 7 8 9 8 7 6 6 5 5 10 11 11 9 11 12 9 7 6 6 5 5 4 4 4 5 4 3
10 10 10 10 9 8 8 8 6 7 8 8 8 8 7 5 6 9 10 10 10 6 5 8 9 11 11 9 11 11 9 7 6 6 5 4 2 2 2 3 4 4 4
11 10 9 9 9 8 7 6 6 6 8 9 10 9 8 7 6 6 6 7 9 8 7 9 11 11 9 9 8 6 5 5 5 5 4 3 2 3 3 3 3 3 4
11 10 9 9 9 8 7 7 7 7 9 10 11 11 11 10 11 13 11 8 8 8 9 6 5 5 5 5 5 5 4 5 5 4 4 4 4 4 3 3 3 3 3
9 9 8 7 7 7 7 7 9 10 12 15 14 13 11 12 16 17 15 15 15 16 9 6 6 5 6 6 6 4 4 4 4 4 4 4 4 4 3 3 3 3 3
10 10 8 8 8 7 7 6 7 5 8 13 15 16 13 16 19 18 16 16 16 15 7 7 6 6 6 5 5 5 4 4 4 4 4 4 3 3 3 3 3 3 3
10 11 10 8 8 8 7 6 6 5 4 6 9 14 16 17 19 18 18 14 9 7 6 8 7 7 6 6 5 5 5 5 4 4 4 4 3 3 3 3 2 2 2
9 8 8 7 7 7 7 6 6 6 5 6 7 8 11 14 15 18 17 9 11 9 7 7 7 7 6 6 6 5 6 6 5 5 4 4 4 3 3 3 2 2 2
8 14 13 7 7 7 7 6 6 5 5 7 10 10 10 10 8 11 9 8 10 10 9 8 7 7 7 6 6 6 6 6 6 5 5 5 4 4 4 4 3 2 1
7 9 14 9 7 7 6 6 5 5 5 7 9 11 16 13 12 13 11 10 10 10 9 8 8 7 7 6 6 7 8 7 6 6 5 5 5 4 4 4 3 3 2
6 6 6 7 6 6 5 5 4 4 6 8 8 10 15 11 11 11 11 10 10 9 9 8 8 7 7 8 8 8 8 7 7 7 6 6 5 5 5 4 4 3 3
6 6 6 6 5 6 5 4 4 4 5 7 9 10 11 10 10 11 11 10 9 8 8 8 8 7 7 7 7 8 9 9 8 8 8 7 7 6 6 6 6 5 4
6 6 6 5 4 4 4 4 4 5 6 7 9 10 11 10 10 11 10 10 9 9 8 8 9 11 12 9 7 8 8 8 8 8 11 9 8 7 7 6 7 7 5
5 5 5 4 4 3 3 3 3 5 6 7 8 9 10 10 9 10 9 9 10 9 10 10 8 9 12 13 11 9 9 10 9 8 9 9 9 9 9 9 7 7 6
5 4 4 3 3 2 2 2 3 5 6 7 8 9 9 10 9 9 9 9 9 9 9 9 10 11 12 11 13 13 10 10 11 10 8 8 9 9 10 8 10 9 8
Wind_Direction
283 260 246 240 234 233 242 254 268 284 296 303 307 310 310 310 307 298 282 271 257 252 245 233 228 204 192 183 171 164 156 140 131 109 78 75 81 92 83 82 87 84 78
301 278 254 244 234 234 243 250 259 277 291 300 308 312 315 318 318 313 300 288 263 251 240 215 212 174 154 153 152 146 138 131 130 126 101 74 73 89 87 81 76 78 79
313 294 270 250 238 237 239 243 248 266 289 307 313 316 321 325 331 335 323 321 337 346 175 140 139 140 135 132 128 125 121 116 114 119 110 81 72 72 82 75 69 58 66
318 301 280 262 244 238 235 235 239 249 271 299 309 314 323 335 346 356 9 27 47 55 60 72 86 116 129 126 119 117 115 111 109 112 110 95 79 64 81 80 69 50 45
323 310 289 277 260 242 230 228 230 234 248 275 304 324 339 359 11 21 48 61 59 60 61 63 70 89 101 108 113 113 114 113 113 112 111 102 87 77 76 71 83 68 54
324 316 308 293 274 255 235 223 220 220 229 238 282 336 9 29 34 48 64 79 70 67 66 63 67 75 85 87 92 97 109 118 117 113 112 111 101 91 87 87 86 71 50
321 317 318 309 289 272 249 223 217 209 203 209 208 167 82 47 61 68 72 79 76 74 74 72 75 77 84 92 89 86 84 90 104 119 119 117 113 116 112 92 81 80 72
315 317 313 313 304 290 265 238 220 202 197 200 193 178 151 113 99 89 86 81 77 72 72 79 87 86 91 99 97 88 80 73 84 95 105 104 106 110 101 103 104 96 80
302 308 311 304 300 293 277 255 228 204 197 196 187 177 168 163 140 117 105 95 87 76 69 72 90 95 99 104 102 98 90 80 76 83 85 87 87 86 96 95 81 80 63
289 293 299 299 295 290 278 267 239 212 201 193 187 180 179 176 165 144 125 114 103 95 80 70 77 98 106 109 112 113 108 101 99 88 75 67 69 65 60 70 94 92 78
284 287 291 290 290 287 277 269 246 217 199 192 185 180 183 183 173 163 150 134 131 121 110 97 90 105 107 107 110 115 123 118 104 97 88 78 70 63 57 56 60 81 84
285 285 287 287 288 294 282 275 254 219 199 189 184 179 184 186 177 172 162 148 142 133 129 123 117 114 110 107 106 116 117 111 105 99 92 82 74 63 55 57 60 64 68
284 281 282 284 282 284 277 273 262 225 202 188 186 186 183 181 179 172 165 153 144 131 132 133 125 114 103 99 108 115 114 111 110 105 100 88 72 59 60 64 54 58 63
282 281 280 281 281 281 273 264 257 233 211 195 188 186 180 175 175 166 160 150 139 125 123 121 111 100 96 99 100 97 99 109 114 113 108 94 83 76 63 53 51 39 49
279 280 279 276 274 276 273 263 254 243 222 202 193 183 178 182 186 171 162 160 156 146 133 119 114 113 111 107 103 103 107 110 106 110 113 108 97 86 69 53 58 58 56
278 279 275 273 272 271 274 280 259 245 230 211 198 182 185 180 165 167 165 158 150 146 135 138 140 142 142 139 135 126 122 124 121 123 119 116 111 101 89 75 71 69 62
270 275 275 272 270 271 270 271 284 277 226 201 190 181 176 165 162 165 160 152 151 148 142 153 155 157 154 152 150 146 145 142 136 136 133 131 126 117 108 96 85 75 60
269 276 277 268 266 266 264 257 263 262 227 191 186 180 170 163 161 156 144 133 147 163 160 163 165 164 162 162 163 157 148 146 148 149 147 147 145 137 129 119 105 91 71
269 272 271 266 263 263 260 256 258 252 217 186 161 164 166 154 148 150 150 157 166 173 171 170 169 168 169 169 168 165 162 164 163 160 162 162 159 152 146 142 131 115 93
266 276 281 269 263 263 258 253 254 237 203 183 173 162 151 145 150 162 175 170 171 175 176 175 174 174 173 171 168 167 168 170 172 174 174 173 171 170 166 164 160 149 130
266 274 281 276 263 262 256 249 247 223 191 182 172 165 163 166 167 172 179 180 178 178 179 179 176 176 175 172 170 174 178 182 184 184 181 180 178 179 178 174 171 167 156
263 265 266 267 266 261 253 246 233 206 186 178 159 155 164 165 167 172 180 185 185 182 179 177 179 181 181 180 178 180 186 190 191 191 190 187 185 185 179 178 179 176 176
260 264 266 267 262 257 254 242 213 192 178 170 156 156 169 172 171 175 180 183 181 180 177 177 180 184 185 186 185 186 192 197 196 191 190 191 191 190 186 186 186 183 187
262 266 269 272 264 254 240 226 199 182 172 165 160 163 171 175 175 178 179 178 179 180 179 182 187 190 189 187 191 198 204 202 193 194 195 196 196 194 189 189 192 193 189
261 262 263 265 264 250 233 209 186 176 170 165 164 166 170 174 176 177 177 177 178 181 184 186 190 193 196 197 198 204 205 198 197 195 194 198 200 196 193 193 191 188 186
255 254 253 256 252 238 226 199 182 173 166 165 165 165 168 173 176 175 174 176 180 183 186 190 197 198 199 203 210 210 202 197 197 196 195 196 198 200 196 199 195 191 186